[[{"header":{"parameterUnit":"m.s-1","parameterCategory":1,"la1":30.2991,"la2":30.254,"lo1":-89.0895,"lo2":-89.0444,"dy":0.0017,"dx":0.0017,"nx":28,"ny":28,"refTime":"2024-10-14T03:00:00:Z","depth":0,"parameterNumber":2,"parameterNumberName":"U-component_of_WINDS"},"data":[0,0,0,0,0,0,0,0,0,0,0,0,0,0,0,0,0,0,0,0,0,0,0,0,0,0,0,0,0,0,0,0,0,0,0,0,0,0,0,0,0,0,0,0,0,0,0,0,0,0,0,0,0,0,0,0,0,0,2.7641,2.7641,0,2.773,2.7731,2.7732,2.769,2.7688,2.7686,2.7683,2.7782,2.7787,2.7791,0,0,0,0,0,0,0,0,0,0,0,0,0,2.7443,2.7447,2.764,2.7642,2.7643,2.773,2.7731,2.7732,2.7691,2.7688,2.7685,2.7682,2.778,2.7786,2.7792,0,0,0,0,0,0,0,0,0,0,0,0,0,2.7531,2.7448,2.764,2.7632,2.7632,2.7729,2.7731,2.7732,2.7691,2.7688,2.7684,2.7681,2.7779,2.7786,2.7793,2.7905,0,0,2.7814,2.7817,0,0,0,0,0,0,0,0,2.7526,2.7538,2.7632,2.7633,2.7633,2.7695,2.7697,2.7791,2.7692,2.7669,2.7683,2.7679,2.7756,2.7765,2.779,2.7909,2.7914,2.7815,2.7819,2.7822,2.7824,0,0,0,0,0,0,0,2.752,2.7534,2.7676,2.7634,2.7634,2.7627,2.7636,2.7715,2.7731,2.7671,2.7668,2.7679,2.7756,2.7783,2.7792,2.7915,2.7815,2.7821,2.7825,2.7828,2.8137,2.8141,0,0,0,0,0,0,2.7513,2.7529,2.7673,2.7679,2.757,2.7634,2.7643,2.7679,2.773,2.7734,2.7682,2.7676,2.7772,2.7783,2.7795,2.7934,2.7822,2.7829,2.7833,2.8134,2.8138,2.8143,0,0,0,0,0,0,2.7509,2.7526,2.767,2.7603,2.7621,2.7641,2.7681,2.7683,2.7709,2.7738,2.7742,2.7705,2.777,2.7785,2.7879,2.7936,2.7832,2.7839,2.8129,2.8135,2.8141,2.8209,0,0,0,0,0,0,2.7503,2.7525,2.7565,2.7604,2.7624,2.7749,2.7684,2.7687,2.7721,2.7715,2.7761,2.7766,2.7769,2.7868,2.7886,2.7944,2.7844,2.8124,2.8132,2.8139,2.8202,2.8217,2.8229,0,0,0,0,0,2.7496,2.7581,2.7567,2.7585,2.7675,2.7752,2.7764,2.7763,2.7725,2.7768,2.7788,2.7764,2.7927,2.7878,2.7897,2.7959,2.812,2.8129,2.8138,2.8196,2.8214,2.8229,0,0,0,0,0,0,2.7549,2.7586,2.7571,2.767,2.7709,2.7745,2.7798,2.7782,2.7833,2.7826,2.7825,2.7836,2.7934,2.7955,2.7901,2.8073,2.8018,2.8031,2.8055,2.8073,2.8086,2.808,2.785,0,0,0,0,0,2.7572,2.7629,2.7659,2.7745,2.7764,2.7778,2.7812,2.7808,2.7849,2.7865,2.7891,2.7933,2.7994,2.8034,2.8092,2.8204,2.8217,2.8257,2.8271,2.8282,2.8294,2.8361,2.838,2.8172,2.8172,2.8172,0,0,2.7621,2.7648,2.7684,2.7756,2.7785,2.7848,2.7792,2.7859,2.7908,2.7876,2.7966,2.7987,2.8035,2.814,2.8187,2.8161,2.8354,2.8293,2.8302,2.8308,2.8372,2.8391,2.8409,2.8178,2.8177,2.8176,0,0,2.7743,2.7767,2.7843,2.7873,2.7918,2.7927,2.7945,2.7985,2.7998,2.8088,2.8067,2.8125,2.8229,2.8265,2.8297,2.8437,2.8419,2.8455,2.8528,2.8593,2.861,2.8624,2.8678,2.8697,2.8467,2.8467,2.8467,0,2.7798,2.7889,2.7884,2.7955,2.7989,2.7962,2.8042,2.8072,2.8134,2.816,2.8129,2.8261,2.8291,2.8406,2.8441,2.8466,2.8491,2.8451,2.8607,2.8622,2.8635,2.8687,2.8707,2.8472,2.8471,2.8471,2.847,0,2.7958,2.8022,2.8078,2.8138,2.8178,2.8253,2.8263,2.8305,2.8299,2.8313,2.8408,2.8443,2.8509,2.8536,2.8531,2.8653,2.8635,2.8606,2.8551,2.866,2.8709,2.8728,2.8478,2.8476,2.8475,2.8474,0,0,2.8115,2.8172,2.8194,2.8222,2.8271,2.8322,2.8398,2.8461,2.8499,2.8543,2.861,2.87,2.8674,2.871,2.8709,2.8765,2.888,2.873,2.8731,2.876,2.9022,2.9046,2.9069,2.8867,2.8871,2.8874,2.9019,0,2.8243,2.8372,2.8372,2.8493,2.8555,2.8532,2.8599,2.8638,2.8654,2.8712,2.873,2.8796,2.8754,2.8776,2.8831,2.8854,2.8933,2.8843,2.8934,2.8937,2.8925,2.9093,2.9119,2.9254,2.9038,2.9041,2.9043,0,2.8409,2.8458,2.8586,2.8629,2.8655,2.8715,2.8775,2.8829,2.8875,2.8883,2.8925,2.8917,2.8998,2.8939,2.9054,2.8994,2.9031,2.9048,2.9054,2.9064,2.8998,2.9113,2.9296,2.9318,2.9072,2.907,2.9068,0,2.8516,2.8614,2.8704,2.8729,2.8781,2.8824,2.8849,2.8891,2.893,2.8984,2.9011,2.9073,2.9109,2.916,2.917,2.9125,2.9287,2.9228,2.93,2.93,2.9337,2.9335,2.9533,2.9356,2.9355,2.9355,2.9354,0,2.866,2.874,2.8754,2.8809,2.89,2.89,2.8991,2.9012,2.9051,2.9114,2.9097,2.9157,2.9165,2.9229,2.9238,2.9334,2.935,2.9362,2.9364,2.9365,2.9364,2.9391,2.9384,2.936,2.9359,2.9358,2.9357,0,2.8795,2.8807,2.8904,2.8946,2.8959,2.9024,2.9062,2.9117,2.9132,2.9212,2.9231,2.9255,2.9329,2.9344,2.9431,2.9438,2.9554,2.9545,2.9538,2.9539,2.9611,2.9606,2.9836,2.9869,2.9667,2.9668,2.967,0,2.8888,2.895,2.8998,2.9038,2.9064,2.9129,2.9169,2.9173,2.9217,2.9276,2.9326,2.9398,2.9455,2.9575,2.9603,2.9671,2.9666,2.9742,2.9677,2.9678,2.9673,2.967,2.9679,2.9756,2.9758,2.976,2.9761,0,2.9054,2.9057,2.9115,2.9176,2.9225,2.9274,2.932,2.9354,2.9366,2.9416,2.9491,2.9536,2.9625,2.9699,2.9768,2.9796,2.9783,2.9782,2.9803,2.9806,2.9802,2.9809,2.9577,2.9777,2.9775,2.9774,2.9773,2.9773,2.9174,2.9229,2.9273,2.9339,2.9374,2.9419,2.9474,2.9496,2.9558,2.963,2.963,2.9713,2.9762,2.9853,2.9886,2.9954,2.993,2.9959,2.9968,2.9976,2.9985,2.9788,2.9966,2.9965,2.9965,2.9965,2.9964,0,2.9342,2.9369,2.943,2.9496,2.9549,2.9529,2.958,2.9628,2.97,2.9746,2.9803,2.9892,2.9964,2.9998,3.007,3.0118,3.0115,3.0138,3.0136,3.0144,2.9999,2.9976,3.014,3.014,3.014,3.014,3.014,3.014,2.9436,2.9529,2.9539,2.9652,2.9679,2.9759,2.9791,2.9834,2.9871,2.997,3.0029,3.005,3.0093,3.0168,3.0235,3.0244,3.0273,3.03,3.0306,3.0171,3.0153,3.0136,3.0114,3.0305,3.0306,3.0446,3.0447,3.0448]},{"header":{"parameterUnit":"m.s-1","parameterCategory":1,"la1":30.2991,"la2":30.254,"lo1":-89.0895,"lo2":-89.0444,"dy":0.0017,"dx":0.0017,"nx":28,"ny":28,"refTime":"2024-10-14T03:00:00:Z","depth":0,"parameterNumber":3,"parameterNumberName":"V-component_of_WINDS"},"data":[0,0,0,0,0,0,0,0,0,0,0,0,0,0,0,0,0,0,0,0,0,0,0,0,0,0,0,0,0,0,0,0,0,0,0,0,0,0,0,0,0,0,0,0,0,0,0,0,0,0,0,0,0,0,0,0,0,0,0.2414,0.2416,0,0.2522,0.2523,0.2524,0.249,0.2488,0.2485,0.2483,0.2595,0.2599,0.2605,0,0,0,0,0,0,0,0,0,0,0,0,0,0.2179,0.2183,0.2414,0.2416,0.2417,0.2521,0.2523,0.2524,0.249,0.2487,0.2485,0.2482,0.2593,0.2599,0.2605,0,0,0,0,0,0,0,0,0,0,0,0,0,0.2283,0.2185,0.2414,0.2412,0.2413,0.2521,0.2523,0.2525,0.2491,0.2487,0.2484,0.2481,0.2591,0.2598,0.2606,0.2722,0,0,0.2629,0.2633,0,0,0,0,0,0,0,0,0.2277,0.2292,0.2411,0.2413,0.2414,0.2489,0.2481,0.2591,0.2492,0.2462,0.2483,0.2479,0.2562,0.2572,0.26,0.2727,0.2732,0.263,0.2635,0.2638,0.264,0,0,0,0,0,0,0,0.227,0.2287,0.2457,0.2413,0.2415,0.2406,0.2417,0.2501,0.253,0.2464,0.2462,0.2475,0.2562,0.2592,0.2602,0.2734,0.263,0.2637,0.2641,0.2644,0.2956,0.296,0,0,0,0,0,0,0.2262,0.2281,0.2453,0.246,0.2336,0.2413,0.2425,0.2468,0.2529,0.2535,0.2478,0.2473,0.2581,0.2593,0.2606,0.2742,0.2638,0.2645,0.2649,0.2953,0.2957,0.2961,0,0,0,0,0,0,0.2257,0.2278,0.2449,0.237,0.2391,0.2421,0.2469,0.2472,0.2502,0.2539,0.2544,0.2503,0.2579,0.2595,0.2692,0.2746,0.2648,0.2655,0.2948,0.2954,0.2959,0.3018,0,0,0,0,0,0,0.225,0.2276,0.2321,0.2371,0.2395,0.2534,0.2473,0.2477,0.2515,0.251,0.2565,0.257,0.2577,0.2681,0.27,0.2754,0.2661,0.2944,0.2951,0.2957,0.3011,0.3025,0.3036,0,0,0,0,0,0.2242,0.2335,0.2324,0.2345,0.2452,0.2537,0.2551,0.2557,0.252,0.2565,0.2588,0.2569,0.2737,0.2691,0.2712,0.277,0.294,0.2949,0.2957,0.3006,0.3022,0.3036,0,0,0,0,0,0,0.2292,0.2342,0.233,0.2441,0.2485,0.2531,0.2588,0.2575,0.2631,0.2624,0.2629,0.2641,0.274,0.2765,0.2713,0.2883,0.2833,0.2846,0.2863,0.2879,0.2891,0.2882,0.2668,0,0,0,0,0,0.2316,0.2381,0.2421,0.2515,0.2537,0.2559,0.2597,0.2597,0.2643,0.2661,0.2692,0.2737,0.2799,0.2841,0.2901,0.3015,0.3024,0.3065,0.3077,0.3087,0.3098,0.3155,0.3173,0.2988,0.2988,0.2988,0,0,0.2366,0.2401,0.2442,0.2526,0.256,0.2625,0.2575,0.2648,0.2696,0.2673,0.2765,0.2788,0.2839,0.2944,0.2991,0.2967,0.315,0.3098,0.3105,0.3111,0.3166,0.3183,0.3198,0.2994,0.2993,0.2992,0,0,0.249,0.2525,0.2605,0.2639,0.269,0.2704,0.2723,0.2771,0.2785,0.2877,0.2859,0.2917,0.3026,0.3061,0.3093,0.3227,0.321,0.3246,0.3311,0.3367,0.3381,0.3394,0.3438,0.3455,0.3257,0.3257,0.3257,0,0.2546,0.2645,0.2648,0.2721,0.2757,0.2737,0.2817,0.2851,0.2919,0.2944,0.2916,0.3049,0.3083,0.3193,0.3225,0.3253,0.3273,0.324,0.3379,0.3392,0.3404,0.3446,0.3463,0.3261,0.3261,0.326,0.326,0,0.2709,0.2778,0.2836,0.29,0.2943,0.302,0.3034,0.3077,0.3073,0.3088,0.318,0.3219,0.3284,0.3311,0.3309,0.342,0.3403,0.3377,0.3327,0.3425,0.3464,0.3481,0.3266,0.3265,0.3264,0.3263,0,0,0.2869,0.2932,0.2953,0.298,0.3033,0.3086,0.316,0.3223,0.3258,0.3305,0.3366,0.3457,0.3432,0.3468,0.347,0.3519,0.3617,0.3487,0.3488,0.3507,0.3738,0.3754,0.3773,0.3607,0.361,0.3613,0.3732,0,0.2995,0.3125,0.3129,0.3247,0.3308,0.3288,0.3352,0.3391,0.3407,0.3461,0.3478,0.3541,0.3505,0.3526,0.3575,0.3595,0.3663,0.3587,0.3661,0.3664,0.3647,0.3795,0.3814,0.3925,0.3748,0.3751,0.3753,0,0.316,0.321,0.3334,0.3374,0.34,0.3458,0.3513,0.3565,0.3608,0.3616,0.3654,0.3647,0.3721,0.3669,0.3769,0.3717,0.3747,0.3762,0.3766,0.3772,0.3713,0.3801,0.3961,0.3976,0.3778,0.3776,0.3774,0,0.326,0.3358,0.3444,0.3468,0.3519,0.3559,0.3582,0.3621,0.3657,0.3705,0.3728,0.3785,0.3816,0.3859,0.3867,0.3829,0.3966,0.3916,0.3972,0.3972,0.4001,0.3999,0.4165,0.4025,0.4025,0.4025,0.4024,0,0.3399,0.3474,0.3488,0.3541,0.3624,0.3627,0.3709,0.3729,0.3763,0.3818,0.3805,0.3857,0.3865,0.3917,0.3924,0.4003,0.4019,0.4025,0.4025,0.4025,0.4024,0.4043,0.4035,0.4029,0.4028,0.4027,0.4026,0,0.3524,0.3537,0.3628,0.3667,0.3678,0.3737,0.377,0.382,0.3833,0.3902,0.3919,0.394,0.4001,0.4013,0.4086,0.409,0.4184,0.4178,0.4169,0.4167,0.4222,0.4215,0.4405,0.4428,0.4276,0.4277,0.4279,0,0.361,0.3667,0.3712,0.3747,0.3771,0.3828,0.3864,0.3868,0.3906,0.3956,0.3999,0.4058,0.4106,0.4204,0.4225,0.428,0.4273,0.4336,0.4282,0.4278,0.427,0.4266,0.4269,0.4346,0.4348,0.4349,0.435,0,0.3761,0.3764,0.3815,0.3868,0.3911,0.3953,0.3993,0.4023,0.4032,0.4075,0.4136,0.4173,0.4245,0.4303,0.4357,0.438,0.4366,0.4367,0.4382,0.4381,0.4372,0.4374,0.4194,0.4362,0.4361,0.436,0.436,0.4359,0.3868,0.3916,0.3953,0.401,0.404,0.4077,0.4123,0.4141,0.4193,0.4251,0.4251,0.4317,0.4355,0.4425,0.4451,0.4502,0.4482,0.4505,0.451,0.4515,0.4518,0.4366,0.4512,0.4512,0.4511,0.4511,0.4511,0,0.4015,0.4037,0.4089,0.4144,0.4188,0.417,0.4213,0.425,0.4309,0.4345,0.4391,0.4459,0.4515,0.4539,0.4593,0.4629,0.4623,0.4643,0.4639,0.4643,0.4535,0.4515,0.4646,0.4646,0.4646,0.4646,0.4646,0.4646,0.4096,0.4175,0.4182,0.4274,0.4296,0.436,0.4385,0.4418,0.4446,0.4523,0.4569,0.4584,0.4614,0.467,0.4719,0.4724,0.4743,0.4765,0.4767,0.4665,0.4652,0.4638,0.4619,0.477,0.477,0.487,0.4871,0.4872]}]]